Wind_Speed
8 8 8 8 8 7 7 8 8 9 11 12 13 14 15 16 17 18 19 19 20 21 21 21 22 23 23 23 23 24 24 24 24 25 25 25 26 27 28 29 29 30 31
8 8 8 8 8 8 9 9 10 12 13 14 14 15 16 17 18 19 20 20 21 22 22 22 23 24 25 25 24 25 25 25 25 26 26 27 27 27 28 29 30 31 32
9 9 9 9 10 10 10 11 12 14 14 15 16 17 18 19 20 20 21 22 22 22 23 24 24 25 26 26 26 26 26 26 26 27 27 28 28 29 29 29 31 32 33
10 10 10 10 10 11 12 13 14 15 15 16 18 18 19 20 21 21 22 23 23 23 24 25 26 26 27 27 27 27 27 27 27 27 28 29 29 30 30 30 31 32 33
12 11 11 11 12 12 13 14 15 16 16 18 19 19 20 21 22 23 23 24 24 25 25 26 27 28 28 28 28 28 28 28 28 28 29 29 30 30 31 31 31 32 33
13 13 12 13 13 14 15 16 17 17 18 19 20 21 22 22 23 23 24 24 25 26 27 28 28 29 29 29 29 29 29 29 29 29 30 31 31 31 31 32 32 32 33
14 14 14 14 15 16 17 18 18 19 20 21 22 23 23 23 24 25 25 26 27 27 28 29 30 30 30 29 29 29 30 30 31 31 31 32 32 33 33 33 33 34 34
16 16 16 16 17 18 19 19 20 21 22 23 23 24 24 25 25 26 26 27 28 29 30 31 31 31 31 30 30 30 31 32 32 33 33 33 33 34 34 34 34 34 34
17 17 18 18 18 19 20 21 22 23 23 24 25 25 26 26 26 27 28 28 29 30 31 32 32 32 32 32 32 32 33 33 33 34 34 34 35 35 36 35 35 35 35
18 19 19 19 20 21 22 23 24 24 25 26 26 27 27 27 27 28 29 30 31 31 32 33 33 34 34 34 34 34 34 35 35 36 36 36 36 36 36 37 36 36 36
20 20 21 21 22 23 24 25 25 25 26 28 28 28 28 28 29 30 31 32 33 33 34 34 35 35 36 37 36 36 36 37 37 38 38 38 37 37 37 37 37 37 36
21 21 22 23 24 24 25 26 27 27 28 28 29 29 29 30 31 32 33 34 34 35 36 36 37 38 38 38 38 38 38 39 39 39 39 38 38 38 37 37 36 36 36
23 24 24 25 26 26 27 28 28 28 29 30 30 30 31 32 33 34 34 35 35 36 37 38 39 39 39 39 39 39 40 41 41 41 40 39 39 38 38 37 36 36 36
25 26 27 27 28 28 29 29 29 30 31 32 32 32 33 34 34 35 36 37 37 38 39 39 40 41 41 40 40 41 42 42 42 41 41 40 39 38 37 37 36 36 36
27 28 28 29 30 30 30 31 31 32 32 32 33 34 35 36 37 38 38 39 39 40 41 41 42 42 42 42 42 42 42 42 42 41 41 40 39 38 37 36 36 35 35
30 30 30 31 32 32 32 32 33 34 34 35 36 37 37 38 39 39 40 41 42 43 44 44 44 44 45 44 44 44 44 43 43 42 41 40 39 38 37 36 36 35 34
31 32 33 34 34 34 34 34 34 35 36 36 37 38 39 40 40 41 42 43 44 45 45 46 46 47 46 46 45 45 44 44 43 42 41 40 39 37 36 35 35 34 32
32 33 34 35 35 36 36 37 38 39 38 38 39 40 40 40 41 43 44 45 46 46 47 47 48 47 47 46 46 45 44 43 42 41 40 39 38 37 35 34 34 32 31
34 35 36 36 37 37 38 38 39 40 40 40 41 41 41 42 43 44 46 46 47 48 48 48 47 46 46 46 45 44 43 42 41 40 39 37 36 35 33 32 32 31 30
34 36 37 37 37 37 37 38 40 40 41 42 42 42 43 43 45 46 47 48 48 48 48 47 46 46 45 45 45 43 42 41 40 39 37 36 34 33 32 31 30 29 28
34 34 34 35 36 36 37 38 40 41 41 41 42 42 44 45 46 47 48 48 48 48 47 46 46 46 45 45 44 42 41 40 39 37 36 34 32 31 31 30 28 28 28
34 34 35 35 36 37 38 40 40 41 42 43 44 45 46 47 47 48 48 48 48 48 47 46 45 45 44 43 42 40 40 39 38 36 34 33 32 31 30 29 28 27 27
34 34 34 36 37 39 40 40 40 42 43 45 46 46 46 47 47 48 48 47 47 46 45 45 44 43 42 41 40 39 38 37 36 34 33 31 30 29 28 27 27 27 26
36 36 37 37 38 40 41 41 41 43 44 45 46 46 46 46 46 46 46 46 45 45 45 44 43 40 40 39 38 37 36 36 34 33 31 29 28 28 27 26 25 26 25
37 38 38 39 39 41 42 43 43 44 44 45 45 45 46 46 46 46 45 45 45 45 43 42 41 40 38 37 36 36 36 35 32 30 29 28 27 26 25 24 24 24 24
38 38 39 40 40 41 42 42 43 44 45 45 45 46 46 45 45 44 44 44 44 43 42 41 40 39 37 36 35 35 34 33 30 28 27 25 23 23 23 22 22 22 21
Wind_Direction
206 208 215 223 233 244 257 271 283 290 296 301 305 309 313 315 317 318 319 321 322 321 320 319 318 317 315 313 311 309 307 306 304 302 300 297 294 291 287 284 280 277 274
216 222 228 235 243 253 265 275 283 289 295 300 304 307 309 312 314 315 317 318 319 319 319 318 318 317 316 314 312 310 308 306 304 303 301 299 297 294 291 287 283 279 276
226 233 238 245 252 261 271 278 284 290 295 299 302 304 308 310 312 313 314 316 317 317 318 318 318 317 315 313 311 310 308 306 305 303 302 300 298 296 293 290 287 283 280
236 241 246 252 258 268 276 282 288 292 294 298 301 304 307 309 310 311 312 314 315 316 317 318 317 316 315 313 311 309 308 306 305 304 303 302 299 297 295 292 289 286 283
244 248 251 256 264 273 280 284 288 292 294 297 300 303 306 307 308 310 311 312 314 315 317 318 318 317 315 312 311 309 308 307 306 305 305 303 301 299 296 294 292 289 285
249 253 257 263 270 276 281 286 288 291 293 296 298 301 304 305 306 308 309 311 313 314 316 318 318 317 316 313 311 310 308 308 306 306 306 304 302 300 298 296 294 291 288
254 258 263 268 273 278 281 285 288 290 294 297 299 301 304 305 306 307 308 310 312 313 315 317 317 317 315 314 312 311 309 309 307 307 306 305 303 301 299 297 294 292 289
258 263 267 271 276 279 282 285 287 290 293 296 298 300 302 304 305 307 308 309 311 312 314 315 316 317 316 314 312 311 310 309 308 308 307 305 303 301 299 298 295 292 290
264 266 269 272 277 280 283 285 287 289 292 294 296 298 301 303 305 307 308 309 310 311 313 315 316 316 315 314 312 311 310 309 309 308 307 305 303 301 300 298 296 293 290
268 270 272 274 277 280 284 286 287 289 292 294 296 298 300 302 304 305 306 308 309 311 313 314 314 314 313 312 311 309 309 308 308 308 307 305 303 301 299 297 296 293 291
271 272 273 274 276 280 282 285 287 289 290 293 295 297 299 300 302 304 306 306 308 310 312 313 312 312 311 311 310 309 308 308 307 307 306 305 303 301 298 296 294 293 291
271 272 273 275 277 280 282 285 286 288 289 292 294 296 298 300 302 304 305 306 307 309 311 312 312 311 310 310 310 308 308 308 307 306 306 304 302 300 298 296 294 293 291
272 273 275 278 280 282 284 285 286 288 289 291 294 296 297 298 300 301 303 305 306 308 309 309 310 310 309 309 309 308 308 307 306 305 305 303 301 299 297 295 294 292 291
275 276 277 279 281 282 285 286 287 289 289 290 292 294 296 298 300 301 303 304 305 306 307 308 309 309 308 308 308 308 308 307 305 305 304 302 300 298 296 294 292 291 290
276 279 280 280 280 282 283 286 288 290 291 292 293 294 296 297 299 301 303 304 305 306 307 308 308 308 307 307 307 308 308 307 305 304 303 301 299 297 295 293 291 290 290
275 277 278 279 279 280 283 285 287 288 289 290 292 293 295 296 298 301 302 304 304 305 306 307 308 308 307 307 307 307 307 306 305 304 303 301 299 297 294 290 289 289 288
273 275 276 277 279 280 281 283 284 287 289 289 290 292 294 296 298 300 302 303 303 304 305 306 306 306 305 305 305 306 306 305 304 303 302 300 298 295 292 289 287 287 286
273 276 277 276 278 280 281 283 284 286 288 288 289 291 294 296 298 299 300 301 302 303 304 305 305 305 304 304 304 305 304 303 303 302 300 299 296 294 291 287 285 284 284
273 274 276 277 279 279 280 282 283 285 288 291 292 293 294 295 297 299 300 301 302 302 303 304 304 303 303 304 304 304 303 303 302 301 299 297 295 292 290 288 285 283 283
276 276 277 277 279 280 282 283 285 287 289 291 292 294 296 297 299 300 301 301 302 304 304 304 304 304 304 305 305 304 303 302 301 300 298 296 294 291 288 286 283 282 282
276 276 276 279 282 283 284 286 289 291 292 293 295 296 297 299 300 301 302 303 303 304 304 304 303 304 304 304 304 303 302 301 300 299 298 296 293 290 288 284 279 279 280
279 281 282 283 284 286 289 290 291 292 293 294 295 296 298 300 301 301 302 302 302 303 303 304 304 304 304 304 303 302 301 301 299 297 295 294 292 288 285 280 276 276 279
284 284 284 286 287 288 289 290 290 290 292 294 296 297 299 300 301 301 301 302 302 303 303 303 303 303 302 303 302 300 301 301 299 296 294 291 290 287 284 279 276 275 276
285 285 286 287 289 290 291 291 291 292 293 295 296 297 299 299 300 301 301 302 302 303 303 303 302 301 301 302 301 300 300 299 297 296 294 291 287 285 283 279 277 276 276
288 287 286 287 289 291 292 293 294 295 296 296 297 298 299 300 301 301 302 302 302 303 303 303 302 302 301 300 299 298 297 297 295 294 292 290 287 284 281 280 279 277 278
289 289 289 290 291 292 294 295 296 297 297 298 299 300 300 301 302 303 303 303 303 303 303 303 302 302 300 298 297 296 295 294 293 292 290 288 286 285 282 280 279 278 279
Height
5849 5851 5854 5855 5857 5858 5860 5860 5861 5861 5861 5860 5860 5859 5858 5856 5855 5853 5851 5849 5846 5844 5842 5839 5836 5834 5831 5829 5826 5824 5821 5819 5817 5815 5813 5811 5810 5808 5807 5806 5806 5805 5805
5849 5851 5852 5854 5855 5857 5857 5858 5858 5858 5858 5858 5857 5856 5854 5853 5851 5849 5847 5845 5843 5840 5838 5835 5832 5829 5826 5823 5821 5818 5816 5813 5811 5809 5807 5805 5803 5801 5799 5798 5797 5796 5796
5848 5849 5851 5852 5853 5854 5855 5855 5855 5855 5855 5854 5853 5852 5851 5849 5847 5845 5843 5841 5839 5836 5833 5831 5828 5825 5821 5818 5815 5812 5810 5807 5805 5802 5800 5797 5795 5793 5791 5789 5788 5787 5786
5846 5847 5848 5849 5850 5851 5852 5852 5852 5851 5851 5850 5849 5848 5846 5845 5843 5841 5839 5836 5834 5831 5828 5826 5822 5819 5816 5812 5809 5806 5803 5800 5798 5795 5793 5790 5787 5785 5782 5781 5779 5777 5776
5843 5844 5845 5846 5847 5848 5848 5848 5848 5848 5847 5846 5845 5844 5842 5840 5838 5836 5834 5832 5829 5826 5823 5820 5816 5813 5809 5806 5803 5800 5796 5793 5790 5788 5785 5782 5779 5776 5774 5771 5770 5768 5766
5840 5841 5842 5843 5843 5844 5844 5844 5844 5843 5842 5841 5840 5839 5837 5835 5833 5831 5828 5826 5823 5820 5817 5814 5810 5807 5803 5799 5795 5792 5789 5786 5783 5780 5777 5774 5770 5767 5765 5762 5760 5758 5757
5837 5838 5838 5839 5840 5840 5840 5840 5839 5838 5838 5836 5835 5833 5831 5829 5827 5825 5822 5820 5817 5814 5811 5807 5804 5800 5796 5792 5788 5785 5782 5778 5775 5772 5769 5765 5762 5758 5756 5753 5750 5748 5746
5833 5833 5834 5835 5835 5835 5835 5835 5834 5833 5832 5831 5829 5828 5825 5823 5821 5818 5816 5813 5811 5808 5804 5800 5797 5792 5788 5785 5782 5778 5774 5770 5767 5763 5760 5756 5752 5749 5746 5743 5740 5738 5736
5828 5829 5830 5830 5830 5830 5829 5829 5828 5827 5826 5825 5823 5821 5819 5817 5815 5812 5809 5807 5804 5800 5797 5793 5789 5785 5781 5777 5774 5770 5766 5762 5758 5754 5751 5747 5743 5739 5735 5732 5730 5727 5726
5823 5824 5824 5824 5824 5824 5823 5823 5822 5821 5819 5818 5816 5814 5812 5810 5808 5805 5802 5799 5796 5793 5789 5785 5781 5777 5773 5769 5765 5761 5757 5753 5749 5745 5741 5737 5733 5729 5725 5721 5718 5716 5714
5818 5818 5818 5818 5818 5817 5817 5816 5815 5814 5813 5811 5809 5807 5805 5803 5800 5797 5794 5791 5788 5784 5781 5777 5773 5769 5764 5760 5756 5752 5748 5744 5739 5735 5731 5727 5722 5718 5714 5710 5707 5704 5702
5812 5812 5812 5812 5811 5810 5810 5809 5808 5806 5805 5803 5801 5799 5797 5795 5792 5789 5786 5783 5779 5776 5772 5768 5764 5759 5755 5750 5746 5742 5737 5733 5729 5724 5720 5716 5711 5707 5703 5699 5696 5693 5690
5806 5806 5805 5805 5804 5803 5803 5801 5800 5799 5797 5795 5793 5791 5789 5787 5784 5781 5777 5774 5770 5766 5763 5759 5754 5750 5745 5741 5736 5731 5727 5722 5717 5713 5709 5704 5700 5695 5691 5688 5684 5681 5679
5799 5798 5798 5797 5796 5796 5794 5793 5792 5790 5789 5787 5785 5783 5780 5777 5774 5771 5768 5764 5761 5757 5753 5749 5744 5739 5734 5730 5725 5721 5716 5711 5706 5701 5697 5692 5688 5684 5680 5676 5673 5670 5668
5790 5790 5789 5788 5788 5787 5786 5785 5783 5782 5780 5778 5776 5773 5770 5767 5764 5761 5757 5754 5750 5746 5742 5738 5733 5729 5724 5719 5714 5709 5704 5699 5694 5689 5685 5680 5676 5672 5668 5665 5661 5659 5656
5782 5782 5781 5780 5779 5778 5777 5776 5774 5773 5771 5768 5766 5763 5760 5757 5754 5750 5747 5743 5739 5735 5730 5726 5721 5716 5712 5707 5702 5697 5692 5687 5682 5677 5672 5668 5664 5660 5656 5653 5650 5647 5645
5773 5773 5772 5771 5770 5769 5768 5766 5765 5763 5761 5759 5756 5753 5750 5747 5743 5740 5736 5732 5728 5723 5718 5714 5709 5704 5699 5694 5689 5684 5679 5675 5669 5665 5660 5656 5652 5648 5645 5642 5639 5637 5635
5764 5763 5763 5762 5760 5759 5757 5756 5754 5752 5750 5748 5746 5743 5740 5736 5733 5729 5725 5720 5716 5710 5706 5701 5696 5691 5686 5681 5676 5671 5666 5661 5657 5652 5648 5644 5640 5636 5633 5631 5628 5626 5624
5755 5754 5753 5752 5751 5749 5747 5745 5744 5742 5740 5737 5734 5731 5728 5725 5721 5716 5712 5707 5703 5698 5693 5688 5683 5678 5672 5667 5662 5658 5653 5648 5644 5640 5635 5632 5628 5625 5622 5620 5618 5616 5614
5745 5744 5743 5742 5741 5739 5737 5735 5733 5731 5728 5726 5723 5719 5715 5712 5708 5703 5699 5694 5689 5684 5679 5674 5669 5664 5659 5654 5649 5645 5640 5636 5631 5627 5624 5620 5617 5614 5612 5610 5608 5606 5605
5736 5734 5733 5731 5730 5728 5726 5724 5722 5720 5717 5714 5710 5707 5703 5699 5694 5690 5685 5680 5675 5670 5665 5660 5656 5651 5646 5641 5636 5632 5627 5623 5619 5615 5612 5609 5606 5603 5601 5600 5598 5597 5596
5725 5724 5723 5721 5719 5717 5715 5713 5710 5707 5705 5702 5698 5694 5690 5685 5681 5676 5671 5666 5661 5656 5652 5647 5642 5638 5633 5628 5623 5619 5615 5611 5607 5604 5601 5598 5595 5593 5591 5590 5589 5588 5587
5715 5714 5712 5710 5708 5705 5703 5700 5698 5695 5692 5688 5685 5681 5676 5672 5667 5662 5658 5653 5648 5643 5638 5634 5629 5625 5620 5615 5611 5607 5603 5599 5596 5593 5590 5587 5585 5583 5581 5580 5579 5579 5578
5704 5703 5701 5699 5697 5694 5691 5688 5685 5682 5678 5675 5671 5667 5663 5658 5654 5649 5644 5640 5635 5630 5625 5621 5616 5612 5608 5603 5599 5595 5592 5588 5585 5582 5580 5577 5575 5574 5572 5571 5571 5570 5570
5693 5691 5689 5687 5684 5682 5679 5676 5672 5669 5665 5661 5657 5653 5649 5645 5640 5636 5631 5626 5622 5617 5612 5608 5603 5600 5596 5592 5588 5585 5581 5578 5575 5572 5570 5568 5566 5565 5564 5563 5563 5563 5562
5682 5679 5677 5674 5672 5669 5666 5663 5659 5655 5652 5648 5644 5640 5636 5631 5627 5622 5618 5613 5608 5604 5599 5595 5591 5587 5584 5580 5577 5574 5571 5568 5565 5563 5561 5559 5558 5557 5556 5556 5555 5555 5555